Probability
0 0 1 1 0 0 0 0 0 0 0 0 0 0 0 0 0 0 0 0 0 2 5 8 9 9 7 5 4 5 6 7 8 6 4 3 2 1 0 0 0 0 0 0 0 0 0 0 0
0 0 1 1 0 0 0 0 0 0 0 0 0 1 1 0 0 0 0 0 0 2 5 8 10 9 7 4 4 5 6 6 7 6 4 3 2 1 0 0 0 0 0 0 0 0 0 0 0
0 0 1 1 0 0 0 0 0 0 0 0 1 2 1 0 0 0 0 0 1 3 6 9 11 9 6 4 4 4 5 5 5 4 3 3 1 0 0 0 0 0 0 0 0 0 0 0 0
0 0 0 0 0 0 0 0 0 0 1 1 2 2 1 0 0 0 0 0 2 3 5 9 11 9 6 4 3 3 4 4 4 3 3 2 1 0 0 0 0 0 0 0 0 0 0 0 0
0 0 0 0 0 0 0 0 0 1 2 3 3 2 1 0 0 0 0 0 1 3 5 8 10 9 6 4 3 3 3 4 3 3 2 2 1 0 0 0 0 0 0 0 0 0 0 0 0
0 0 0 0 0 0 0 0 1 2 3 3 2 1 0 0 0 0 0 0 1 2 4 6 8 7 6 5 4 3 3 3 2 1 1 1 0 0 0 0 0 1 1 1 0 0 0 0 0
0 0 0 0 0 0 0 0 1 2 2 1 1 0 0 0 0 0 0 0 0 1 2 4 6 6 6 5 4 3 3 1 1 0 0 0 0 0 0 0 0 1 2 1 1 1 0 0 0
0 0 0 0 0 0 0 0 0 1 1 0 0 0 0 1 1 0 0 0 0 1 2 3 4 5 5 4 3 3 2 1 0 1 2 1 0 0 0 0 0 1 1 1 1 1 0 0 0
0 0 0 0 0 0 0 0 0 0 0 0 0 0 1 3 3 1 0 0 1 3 4 4 5 6 5 4 4 3 1 1 1 3 4 2 0 0 0 0 0 0 0 0 0 0 0 0 0
0 0 0 0 0 0 0 1 0 0 0 0 0 1 3 5 5 3 1 1 3 5 6 6 6 6 5 4 4 4 3 3 3 3 3 1 0 0 0 0 0 0 0 0 0 0 0 0 1
0 0 0 0 0 0 0 0 0 0 0 0 1 2 4 6 5 3 1 2 4 5 6 6 6 6 5 4 5 5 5 4 3 2 1 0 0 0 0 0 0 0 0 0 0 1 1 2 3
0 0 0 0 0 0 0 0 0 0 0 0 1 2 4 5 4 2 1 2 3 3 4 5 5 6 6 6 7 7 6 4 2 1 0 0 0 0 0 0 0 0 0 0 1 2 2 3 5
0 0 0 0 0 0 0 0 0 0 0 0 0 1 2 3 3 2 2 1 1 2 3 4 6 7 8 9 9 8 6 3 1 0 0 0 1 1 0 1 1 1 2 2 2 3 3 5 6
0 0 0 0 0 0 0 0 0 0 0 0 0 0 0 1 4 5 3 2 2 3 4 6 8 9 9 10 9 8 6 4 1 0 1 1 2 2 2 2 2 3 3 3 4 4 4 6 7
0 0 0 0 0 0 0 0 0 0 1 1 1 1 1 2 4 6 5 2 2 4 6 8 9 9 9 10 9 7 6 4 2 1 2 2 2 3 3 3 3 3 4 5 5 6 6 6 5
0 0 0 0 0 0 0 0 0 1 2 2 2 2 2 4 5 5 4 3 3 6 8 9 9 9 9 10 9 7 5 4 3 3 3 3 3 3 3 4 4 4 5 6 7 6 7 6 5
0 0 0 0 0 0 0 0 0 1 2 3 3 3 5 6 6 4 4 4 6 8 10 10 10 10 10 9 8 7 5 4 3 3 4 4 4 4 4 4 5 5 6 7 7 6 6 7 7
0 0 0 0 0 0 0 0 0 0 1 2 2 3 6 7 6 4 4 6 9 11 12 12 13 13 12 10 9 9 8 7 5 5 5 5 5 6 6 6 6 7 7 7 6 5 5 7 8
0 0 0 0 0 0 0 0 1 1 0 1 2 3 5 7 6 5 5 8 13 16 18 18 18 16 16 15 14 13 12 10 8 6 7 8 8 8 8 8 8 8 8 9 7 5 5 7 9
0 0 0 0 1 1 1 1 2 2 1 1 3 4 5 7 7 6 6 9 14 20 23 23 23 22 22 22 20 18 15 12 10 9 9 9 10 10 9 10 9 9 9 10 8 7 7 8 9
0 0 0 1 2 2 2 2 2 3 2 3 5 6 7 10 12 10 8 10 14 19 21 23 26 28 28 26 23 20 17 15 14 12 11 10 10 10 10 11 11 10 9 10 11 10 9 10 10
0 0 0 1 2 3 3 3 3 4 3 4 7 8 10 13 16 15 13 12 14 16 17 20 24 27 29 28 24 21 19 18 16 15 13 11 10 10 12 14 15 14 12 12 13 12 11 11 11
0 0 0 0 1 3 3 3 3 4 3 4 7 11 14 15 17 18 17 15 14 13 14 17 21 25 28 28 26 23 22 20 18 18 16 12 11 12 14 17 19 19 16 13 13 13 13 13 13
0 0 0 0 1 2 2 2 2 3 3 4 6 11 15 17 18 18 19 18 16 14 14 17 21 26 30 31 30 27 26 24 22 22 18 13 13 15 16 17 21 22 19 14 12 12 13 14 15
0 0 0 0 0 1 1 0 1 1 3 4 6 12 16 18 19 21 21 21 21 19 18 21 24 29 32 34 33 31 31 28 25 23 19 14 14 17 17 18 22 22 20 16 13 12 13 14 15
0 0 0 0 0 0 0 0 0 1 3 4 7 12 17 18 19 23 24 23 24 24 25 27 29 31 34 35 34 34 34 32 27 24 19 14 14 17 18 21 23 23 20 17 15 14 13 13 13
0 0 0 0 0 0 0 1 0 1 3 5 6 10 15 18 19 21 24 24 25 28 31 33 34 33 33 33 34 34 34 33 29 25 19 15 14 16 18 20 22 22 19 18 16 14 13 13 13
0 0 0 0 0 0 0 0 0 1 3 4 5 7 12 17 18 18 20 22 25 29 33 36 36 35 32 31 32 31 29 28 25 22 19 14 12 14 15 15 17 18 17 16 14 12 11 11 12
0 0 0 0 0 0 0 0 1 1 3 4 5 8 13 19 19 18 17 20 25 29 31 33 34 35 33 31 29 28 25 22 20 18 17 15 15 16 15 14 15 16 14 12 12 11 10 10 9
0 0 0 0 0 0 0 1 2 2 3 4 5 9 16 20 20 17 17 21 26 29 29 30 31 33 33 31 30 28 25 22 19 17 16 17 18 20 19 16 16 16 13 11 11 11 10 9 8
Wind_Speed
10 8 6 6 7 2 8 8 6 6 5 6 5 3 5 7 7 8 7 8 8 9 10 11 9 7 6 6 5 6 6 7 7 7 6 6 7 6 6 6 6 6 6 7 7 7 7 7 7
6 5 7 6 3 4 8 7 7 7 6 4 4 4 4 7 7 8 8 8 8 9 9 9 10 7 7 6 5 6 6 7 7 7 7 6 6 6 6 6 6 6 6 6 6 6 6 6 7
6 7 6 3 2 5 8 7 7 6 4 3 4 4 5 6 6 6 8 9 9 8 8 10 9 8 7 6 5 5 6 6 6 6 6 6 6 6 5 5 6 6 6 6 6 6 6 6 6
6 6 5 2 5 7 6 6 5 5 5 4 4 6 6 5 4 7 10 10 9 9 8 12 8 8 6 6 5 5 5 5 5 5 5 5 5 5 5 5 5 5 5 5 5 6 5 5 5
7 5 4 3 5 6 5 4 3 3 4 5 4 7 7 6 7 10 10 9 9 8 8 11 9 8 6 5 5 4 4 4 4 4 4 4 4 4 4 4 4 4 4 4 4 4 4 4 4
5 4 3 3 6 5 5 4 3 3 5 5 5 7 7 7 8 10 9 8 8 8 8 10 10 7 6 5 5 4 4 4 4 4 4 4 4 3 4 4 4 4 4 3 4 4 3 4 4
5 3 1 2 4 5 4 3 2 2 4 4 4 6 7 8 8 9 9 8 8 8 7 8 9 8 8 6 5 4 3 3 3 3 3 3 3 3 4 4 4 4 3 3 3 3 3 3 3
5 3 3 3 3 5 5 3 2 1 4 4 3 4 7 9 9 9 9 8 7 7 6 6 6 6 6 7 6 3 2 2 2 2 3 2 2 3 3 3 4 4 3 3 3 3 2 2 3
5 5 3 2 2 4 4 3 3 3 5 4 2 2 8 13 12 10 9 8 7 6 5 5 5 4 3 3 5 4 4 3 2 2 2 2 1 2 2 6 5 4 3 3 2 2 2 3 5
5 4 2 2 2 2 2 2 3 5 6 5 5 6 11 13 12 11 10 9 8 8 7 5 4 4 3 2 2 1 2 2 0 2 1 1 2 2 3 5 4 3 2 2 2 2 5 6 4
4 3 2 1 1 1 2 2 3 4 4 4 6 10 12 13 12 11 10 9 8 7 6 6 5 3 2 2 1 0 0 1 1 2 1 2 1 1 1 1 3 2 2 1 2 4 1 1 1
4 2 2 1 0 2 2 2 3 3 1 2 4 10 13 13 12 11 10 8 7 7 6 6 5 4 2 1 1 1 0 1 1 2 1 1 1 1 2 1 2 1 1 1 1 1 1 1 2
7 4 3 2 3 3 3 3 2 1 1 3 6 11 13 12 11 10 8 7 7 7 6 6 5 4 3 2 1 1 0 0 1 1 2 1 1 1 2 2 2 2 1 1 1 2 2 2 3
3 4 5 4 4 4 4 3 3 1 3 5 8 10 11 11 11 10 9 8 8 7 6 6 6 5 4 3 1 1 1 0 0 1 2 2 1 2 1 1 2 2 2 2 2 3 2 2 2
5 7 7 6 5 3 5 6 4 3 4 6 7 8 10 10 10 10 9 8 8 7 6 6 6 6 5 4 3 1 1 1 0 1 1 1 1 1 1 1 1 2 2 1 1 2 2 2 2
9 10 9 6 5 4 8 6 5 5 6 6 7 8 8 9 10 9 9 8 7 7 7 6 5 6 6 4 2 1 1 1 0 1 1 1 1 0 0 1 2 2 1 1 1 1 1 2 2
10 11 9 7 5 4 8 5 5 5 6 7 7 8 8 8 8 9 9 8 8 7 7 7 6 6 6 5 3 2 1 1 0 0 1 1 0 0 0 1 1 1 1 1 1 2 1 1 1
8 9 9 8 6 6 8 5 3 5 6 7 7 8 8 9 9 9 9 9 8 8 7 7 7 6 5 5 4 3 2 2 1 0 0 0 0 0 1 1 0 1 1 1 1 1 1 1 0
7 8 8 6 4 7 8 6 5 5 6 7 7 8 9 8 7 7 9 9 8 8 8 8 7 7 5 4 4 4 3 3 2 1 1 1 1 1 1 1 1 1 0 1 0 0 1 1 1
9 10 9 6 5 7 7 8 5 5 6 5 6 7 7 7 7 7 8 9 10 10 9 9 8 8 7 5 4 3 3 2 2 1 1 1 1 2 2 1 1 1 1 1 1 1 1 0 1
10 10 8 6 5 8 8 10 8 6 5 4 5 6 7 7 8 8 9 10 10 10 10 8 9 8 8 7 5 4 3 3 3 3 2 1 1 2 1 2 2 1 2 1 1 1 2 1 1
9 7 8 8 9 8 8 8 7 7 6 6 5 6 6 7 7 7 7 8 9 9 9 9 9 9 8 8 6 6 4 4 3 2 1 2 2 2 2 2 2 2 2 1 2 1 1 2 1
6 4 8 9 10 10 9 9 6 7 6 6 6 5 4 5 5 6 6 6 6 8 8 9 9 9 8 8 7 7 5 4 3 2 2 2 2 2 2 2 2 2 2 1 2 1 2 2 2
5 6 7 10 11 13 10 10 6 5 5 5 5 5 4 4 4 5 5 5 5 6 7 8 9 8 9 9 8 7 6 4 3 3 2 3 2 2 2 2 2 2 2 1 2 2 2 2 2
10 9 8 10 11 9 7 9 5 1 3 4 3 4 4 4 4 5 5 6 5 5 6 8 9 9 9 9 9 8 7 6 5 4 3 3 2 2 2 2 2 2 2 2 2 2 2 2 3
11 12 10 8 8 7 8 8 3 1 1 2 3 4 4 4 4 4 5 5 5 5 6 7 8 8 8 8 8 7 7 5 4 4 3 3 2 1 1 2 2 2 2 2 2 2 2 2 3
11 12 11 10 9 9 7 5 5 3 3 3 3 4 4 3 3 3 4 4 5 5 5 7 8 8 8 8 7 6 6 4 3 4 4 2 1 1 1 2 2 2 2 2 3 2 2 2 3
9 8 8 11 10 11 9 9 6 6 5 3 3 3 2 2 3 3 3 3 4 4 5 5 6 7 8 8 6 5 5 5 4 4 3 2 2 1 2 2 2 2 2 2 3 3 2 3 3
9 11 10 10 10 10 9 4 2 3 4 3 3 2 2 2 2 2 2 3 3 4 5 5 6 6 6 7 7 6 5 5 4 4 3 2 2 2 2 2 2 2 2 2 2 3 2 3 3
9 10 11 10 10 10 10 3 4 2 2 2 2 2 2 1 2 3 3 3 4 4 4 5 5 6 6 6 7 6 6 5 4 4 3 3 2 2 2 2 2 2 2 2 2 3 2 3 3
Wind_Direction
191 202 223 235 231 121 70 71 66 80 78 62 59 44 46 32 25 64 95 119 123 125 126 136 130 126 120 112 104 97 88 92 93 91 89 85 80 79 78 80 83 83 83 89 96 111 119 126 131
200 211 232 240 262 87 78 72 77 67 76 89 90 78 73 68 57 94 115 120 131 127 131 127 127 128 120 113 103 97 92 89 87 86 85 86 84 79 78 75 78 83 83 88 96 105 114 122 129
216 236 259 254 41 53 76 79 87 86 89 112 103 70 51 68 93 109 114 133 134 128 129 119 131 128 123 118 109 101 95 92 89 85 84 82 84 82 79 77 76 79 80 83 90 99 107 114 121
233 225 235 244 84 63 63 86 101 117 109 99 111 99 84 66 90 111 127 137 137 140 138 120 131 128 125 122 118 109 99 92 88 83 80 79 80 77 74 76 82 80 83 87 93 99 104 109 117
242 252 221 141 87 80 82 91 111 120 112 109 115 107 99 90 102 122 135 139 139 136 131 123 131 131 128 124 116 106 97 90 83 77 71 74 75 75 74 70 78 81 82 91 94 99 111 122 126
237 242 226 120 100 99 105 118 141 122 116 122 131 118 100 116 129 135 139 142 137 136 131 125 135 137 134 127 116 102 91 84 78 66 50 56 62 64 68 67 71 77 84 90 94 96 98 108 121
269 257 187 109 109 112 102 119 130 122 125 126 137 123 120 136 137 141 140 139 137 136 133 136 141 145 148 138 123 109 90 76 67 57 48 55 68 67 69 74 74 75 86 87 95 107 115 119 121
283 250 179 148 126 103 109 125 86 112 108 114 162 144 139 146 146 144 142 141 140 141 142 140 138 140 151 147 134 123 105 79 67 61 53 60 143 131 112 114 81 73 78 83 91 114 123 137 139
254 241 178 132 113 100 120 145 120 121 131 144 148 81 116 139 150 152 150 151 149 150 152 150 144 145 147 136 132 163 166 147 200 149 132 247 101 88 120 66 64 69 76 83 92 112 149 174 163
241 241 116 59 23 73 131 166 151 167 162 159 145 116 127 146 158 164 163 163 164 165 164 157 152 152 154 139 139 186 180 128 177 63 64 36 46 32 32 95 86 82 92 124 134 189 209 220 171
236 249 115 127 29 310 191 174 188 203 192 182 168 153 152 161 167 173 172 170 169 165 163 163 162 161 167 154 157 135 105 105 128 76 30 37 4 50 33 72 133 139 177 169 160 216 223 154 123
226 232 241 242 330 260 235 205 203 231 339 72 160 158 162 171 177 180 177 175 169 170 171 167 164 169 182 167 134 149 145 111 73 87 12 37 27 21 34 16 26 29 57 23 351 357 70 114 131
220 216 222 242 244 248 248 228 229 219 45 131 148 158 171 178 181 182 180 178 177 178 175 169 167 163 169 173 213 125 84 51 85 43 64 9 17 31 37 36 16 10 31 41 9 26 65 107 121
219 226 232 233 225 213 224 207 216 168 126 145 153 166 177 182 183 181 183 184 185 182 179 169 174 166 171 170 171 163 169 141 9 56 50 14 22 42 29 54 32 26 21 29 20 44 62 76 82
222 226 219 210 211 197 226 202 201 145 157 164 164 169 178 182 185 187 187 188 187 183 179 177 177 168 174 177 178 179 180 152 99 82 77 37 29 58 37 58 45 37 33 53 48 62 64 90 97
220 222 216 182 201 195 238 219 154 154 179 180 176 174 179 183 190 190 188 191 189 184 178 182 181 171 173 176 178 178 168 134 124 93 95 77 47 48 334 52 49 31 20 47 76 68 71 76 80
213 223 221 185 185 213 238 239 142 173 191 193 188 184 184 186 197 194 192 191 189 185 180 180 183 178 177 174 174 177 159 188 200 111 64 89 125 101 330 45 39 339 14 20 31 66 53 88 82
219 225 221 217 180 227 238 241 194 188 207 206 196 192 192 196 203 198 194 192 188 184 182 182 180 179 179 176 177 181 174 189 211 183 88 243 200 224 287 143 67 316 24 31 44 69 41 58 102
256 246 234 224 204 241 241 239 222 201 215 214 206 199 197 200 204 201 194 191 186 184 185 186 186 179 183 184 188 185 186 191 192 189 173 205 232 220 247 273 150 274 43 357 104 132 133 125 143
241 238 232 213 211 248 242 242 222 216 217 221 215 207 205 198 198 194 193 192 191 189 190 190 191 186 189 186 191 191 195 197 182 187 163 200 215 231 212 237 234 224 198 209 211 247 246 156 196
233 241 239 231 218 227 244 231 212 202 206 219 223 215 208 203 198 194 193 194 194 192 193 194 192 188 191 187 186 183 185 194 184 187 183 187 207 211 235 223 253 256 244 199 221 227 243 243 219
231 236 247 237 234 223 227 250 200 196 201 207 215 211 211 208 201 196 191 192 196 196 193 192 189 188 187 187 190 192 197 201 190 194 170 175 197 220 218 226 237 260 262 234 241 219 250 250 241
247 243 241 238 242 251 226 254 225 181 215 216 207 210 212 212 204 195 187 187 190 193 190 186 185 186 186 192 191 198 206 205 193 187 177 208 195 217 227 221 234 246 255 258 284 283 269 258 270
226 220 223 231 238 240 233 247 244 201 228 232 202 203 203 198 191 187 177 176 177 179 185 181 181 183 183 190 193 199 201 202 204 202 198 210 204 207 215 224 235 244 257 246 254 258 237 274 281
219 224 218 216 221 232 214 237 248 262 262 260 222 194 191 186 178 174 175 176 172 174 182 180 180 183 185 187 191 195 198 199 202 215 208 230 231 222 207 234 231 249 248 252 263 252 280 267 259
217 232 241 244 240 231 202 232 228 149 274 255 206 181 176 180 168 164 171 176 172 172 180 183 181 183 183 184 188 192 197 203 201 214 232 233 254 267 233 217 220 241 248 247 246 254 251 259 263
219 228 251 262 263 255 223 228 206 187 199 193 189 179 173 171 163 162 164 170 172 172 176 179 176 175 178 180 183 189 191 200 199 205 219 228 239 248 229 231 226 231 240 251 249 256 265 262 261
246 234 231 242 248 248 238 233 227 197 211 196 180 177 162 155 166 165 162 165 166 167 170 175 174 176 178 176 181 182 182 186 195 204 199 220 229 236 224 225 231 236 240 241 250 251 258 259 259
210 219 234 244 252 254 249 235 104 179 195 191 175 157 152 157 163 168 165 157 153 156 163 173 175 176 178 176 176 177 179 181 191 198 197 197 214 215 222 221 225 230 235 242 251 265 262 261 261
236 234 230 237 239 250 261 242 104 135 185 189 162 148 143 140 158 156 154 146 150 154 163 169 174 178 179 175 172 172 173 176 187 184 183 185 201 217 221 226 224 228 227 238 251 257 261 264 265